Temperature
14 15 15 16 13 10 12 12 12 13 13 15 15 15 14 14 15 15 15 16 16 16 15 15 15 15 15 15 15 15 15 16 16 16 16 15 15 15 15 15 15 15 15 15 15 15 15 15 15
14 14 15 15 11 11 12 11 12 13 14 15 15 15 14 14 14 14 15 15 15 15 15 15 15 15 15 15 15 15 15 15 16 16 15 15 15 15 15 15 14 15 15 15 15 15 15 15 15
14 14 14 9 9 11 13 11 11 12 14 14 14 14 14 13 13 14 14 15 15 15 15 15 15 15 15 15 15 15 15 15 15 15 15 15 15 15 15 15 15 15 15 15 15 15 15 15 15
13 14 12 9 10 10 11 11 11 12 13 13 13 13 13 13 13 13 14 14 15 15 15 15 15 15 15 15 15 15 15 15 15 15 15 15 15 15 15 15 15 15 15 15 15 15 15 15 15
13 13 9 8 10 10 10 10 11 11 11 12 12 12 12 12 13 13 14 14 14 14 14 14 14 14 15 15 15 15 15 15 15 15 15 15 15 15 15 15 15 15 15 14 14 14 14 14 15
12 9 8 9 10 9 9 11 11 10 11 11 11 11 11 12 13 13 13 13 14 14 14 14 14 14 14 14 14 14 14 15 15 15 15 15 15 15 15 15 14 14 14 14 14 14 14 14 14
10 7 8 8 9 9 10 10 10 10 9 10 11 10 11 12 12 12 12 12 13 13 13 13 13 14 14 14 14 14 14 14 14 14 14 14 14 14 14 14 14 14 14 14 14 14 14 14 14
10 7 7 7 8 9 9 10 10 10 10 10 11 10 10 11 11 11 11 12 12 12 13 13 13 13 13 14 14 14 14 14 14 14 14 14 14 14 14 14 14 14 14 14 14 14 14 14 14
9 6 7 7 8 8 9 9 9 10 9 9 9 9 10 10 11 11 11 11 12 12 12 12 12 13 13 13 13 13 13 13 14 14 14 14 14 14 14 14 14 14 14 14 14 14 13 13 13
7 6 7 7 7 7 7 7 8 8 7 8 8 9 9 10 10 10 10 10 11 11 11 12 12 12 12 12 12 13 13 13 13 13 13 13 13 13 14 14 14 14 14 14 13 13 13 13 13
6 5 6 7 7 7 6 6 7 7 6 7 7 7 8 9 9 9 9 10 10 10 10 11 11 12 12 12 12 12 12 12 13 13 13 13 13 13 13 13 13 13 13 13 13 13 13 13 13
4 5 5 6 6 6 6 6 6 5 6 7 7 7 8 8 8 8 9 9 9 10 10 10 11 11 11 11 12 12 12 12 12 12 12 13 13 13 13 13 13 13 13 13 13 13 13 13 13
4 4 5 5 5 5 5 5 5 5 6 6 7 7 7 7 7 8 8 8 9 9 10 10 10 10 11 11 11 11 12 12 12 12 12 12 12 12 12 12 12 12 12 12 12 12 12 12 12
4 4 4 4 5 4 4 4 4 4 5 5 6 6 6 7 7 7 8 8 8 8 9 9 9 10 10 10 11 11 11 11 11 11 12 12 12 12 12 12 12 12 12 12 12 12 12 12 12
4 3 3 4 4 4 4 3 3 4 4 4 4 5 5 6 6 6 7 7 7 8 8 8 9 9 9 10 10 10 11 11 11 11 11 11 11 12 12 12 12 12 12 12 12 12 12 12 12
3 2 2 3 3 4 4 3 3 3 3 3 3 4 4 5 5 6 6 7 7 7 8 8 8 8 9 9 10 10 10 10 10 10 11 11 11 11 11 11 11 11 11 11 11 11 11 11 11
2 2 2 3 3 3 2 2 2 3 3 2 2 3 4 4 5 5 6 6 7 7 7 7 8 8 8 8 9 9 10 10 10 10 10 10 10 11 11 11 11 11 11 11 11 11 11 11 11
1 1 1 2 2 2 1 1 1 2 2 2 2 2 3 4 4 4 5 6 6 6 6 7 7 7 8 8 8 9 9 9 9 9 10 10 10 10 10 11 11 11 11 11 11 11 11 11 11
1 1 1 1 2 2 1 1 1 1 1 1 1 1 2 3 3 4 5 5 6 6 6 6 7 7 7 7 8 8 8 9 9 9 9 9 10 10 10 10 10 10 10 10 10 10 10 10 10
1 0 0 1 2 2 0 0 0 1 0 0 0 1 1 2 3 3 4 4 5 5 5 6 6 6 6 7 7 7 8 8 8 8 9 9 9 9 10 10 10 10 10 10 10 10 10 10 10
1 -0 -0 0 1 1 0 0 -0 -0 0 0 0 0 0 1 2 2 3 4 4 4 5 5 5 5 6 6 6 7 7 8 8 8 8 8 9 9 9 9 10 10 10 10 10 10 10 10 10
0 1 1 1 -0 -1 -0 -0 -0 -1 -1 -1 -1 -1 -0 0 1 1 2 3 3 4 4 5 5 5 5 5 6 6 7 7 7 7 8 8 8 8 9 9 9 9 9 10 10 10 10 10 10
-0 0 0 0 -1 -1 -1 -1 -1 -2 -2 -2 -1 -1 -1 -0 0 1 1 2 3 3 4 4 4 4 4 5 5 5 6 6 7 7 7 8 8 8 8 8 9 9 9 9 9 9 9 9 9
-0 -1 -1 -1 -2 -1 -2 -2 -2 -3 -2 -2 -2 -1 -1 -1 -0 0 1 2 2 3 3 4 4 4 4 4 4 5 5 6 6 6 7 7 7 7 8 8 8 9 9 9 9 9 9 9 9
-2 -2 -2 -2 -2 -1 -2 -2 -2 -3 -3 -3 -2 -2 -1 -1 -1 -0 0 1 2 2 3 3 3 4 4 4 4 4 4 5 5 6 6 6 7 7 7 7 8 8 8 8 9 9 9 9 9
-3 -2 -2 -2 -1 -2 -2 -2 -3 -3 -3 -3 -2 -2 -2 -2 -2 -1 -1 0 1 1 2 2 3 3 3 3 4 4 4 4 5 5 5 6 6 7 7 7 7 8 8 8 8 8 8 8 8
-3 -4 -3 -4 -4 -3 -3 -4 -4 -3 -3 -3 -3 -2 -2 -2 -2 -2 -1 -0 -0 1 1 1 2 2 3 3 3 3 3 4 4 4 5 5 6 6 6 7 7 7 7 7 8 8 8 8 8
-3 -4 -5 -4 -3 -2 -3 -4 -4 -4 -4 -4 -4 -3 -3 -3 -3 -2 -2 -1 -1 -0 0 1 1 2 2 2 3 3 3 3 3 4 4 5 5 5 6 6 6 6 7 7 7 7 7 7 8
-4 -5 -5 -5 -5 -4 -3 -3 -4 -5 -4 -5 -4 -3 -3 -3 -3 -3 -2 -1 -1 -0 -0 0 1 1 2 2 2 2 3 3 3 3 4 4 5 5 5 6 6 6 6 6 6 7 7 7 7
-5 -6 -6 -5 -5 -6 -5 -4 -4 -5 -5 -4 -4 -4 -4 -4 -3 -3 -3 -2 -2 -1 -0 -0 0 1 1 1 1 2 2 2 3 3 3 4 4 4 5 5 5 5 5 6 6 6 6 6 7
Wind_Speed
12 8 3 4 5 4 3 4 2 1 2 2 1 3 5 4 3 2 3 3 5 5 7 9 9 11 12 12 13 13 13 14 14 14 14 14 14 14 14 14 15 16 16 16 16 17 18 18 18
6 3 5 5 5 2 5 4 3 3 3 0 2 3 3 1 1 2 2 1 4 6 7 9 10 11 12 12 13 13 12 13 13 14 13 13 13 13 13 14 15 15 16 16 16 16 17 17 17
4 4 4 4 4 7 5 2 5 3 1 2 2 2 2 1 2 1 2 1 4 5 7 8 10 11 11 12 12 12 12 12 12 13 13 13 12 13 13 13 14 15 15 15 16 16 16 16 16
3 5 5 3 6 6 4 2 2 1 2 3 2 2 1 3 2 2 1 3 5 4 7 9 10 10 11 11 11 12 11 12 12 12 12 12 12 13 13 13 14 14 15 15 15 15 15 15 15
4 4 3 2 7 4 2 2 1 1 0 1 2 2 1 4 4 4 4 4 6 4 5 8 10 10 10 10 10 11 11 12 12 11 11 12 12 13 13 13 13 14 14 14 14 15 15 15 15
3 3 3 7 8 4 2 3 0 1 0 1 2 1 0 3 6 4 4 4 4 4 5 7 9 10 9 9 9 10 10 11 11 11 11 11 12 12 12 12 13 13 13 13 14 14 15 15 15
3 3 4 5 5 4 2 2 1 1 0 1 1 2 1 3 4 3 3 4 4 5 5 5 6 7 9 8 8 9 9 11 11 11 10 11 11 12 12 12 12 12 12 13 13 13 15 14 14
3 3 2 3 4 4 1 1 0 1 1 1 2 2 1 3 1 3 3 4 5 5 5 5 5 5 6 7 8 8 9 9 11 11 11 11 11 11 11 11 11 11 12 13 13 13 14 14 13
3 2 4 4 4 2 2 1 2 1 2 2 2 1 3 0 3 5 4 4 4 4 4 4 4 4 4 5 7 8 8 8 10 10 11 11 10 9 9 10 11 11 11 12 13 13 13 13 12
3 4 6 2 1 0 2 2 2 2 2 2 3 5 4 3 5 5 4 3 2 1 2 3 3 3 4 4 5 6 6 6 8 9 9 9 9 8 8 10 10 10 11 11 12 13 13 11 11
2 3 2 2 1 0 1 3 3 2 1 1 2 2 2 3 3 3 2 2 2 2 2 1 2 2 3 3 4 4 4 5 6 8 9 9 8 7 7 8 8 9 10 9 10 11 10 10 9
1 2 1 3 3 2 2 2 2 1 2 2 1 2 2 2 2 2 2 1 0 0 0 1 2 2 2 3 2 3 3 3 4 6 9 8 6 5 5 5 6 7 7 8 8 8 9 9 9
1 1 2 2 3 2 2 1 2 3 4 2 1 2 2 2 0 0 0 0 1 1 2 1 2 1 2 2 2 2 2 3 4 5 7 8 6 5 5 5 5 6 7 7 7 7 8 8 8
1 1 3 4 3 3 1 3 2 5 3 2 2 2 1 1 2 2 3 2 2 1 2 2 2 2 1 1 1 1 2 3 4 4 5 7 7 6 5 4 4 5 6 7 7 7 7 6 7
1 2 4 4 3 2 1 3 5 5 2 2 2 2 2 2 3 2 1 2 2 1 2 2 1 3 2 1 1 2 2 3 3 4 5 6 7 7 6 4 3 5 7 8 8 7 7 6 6
2 1 2 3 2 2 1 5 5 2 2 2 2 3 3 3 3 2 2 2 2 2 2 2 2 3 3 2 0 1 2 3 3 4 5 6 7 7 6 5 4 5 7 7 6 5 4 4 4
3 1 4 5 1 1 2 4 4 2 2 2 3 3 3 4 4 4 3 2 2 1 1 2 1 1 2 3 1 1 1 2 3 4 4 5 7 7 6 5 5 7 6 5 5 3 4 4 5
2 3 4 5 2 1 2 5 4 2 1 2 3 4 4 4 4 5 4 3 2 2 1 1 1 1 2 2 1 1 1 1 1 3 4 5 6 7 6 5 6 7 4 4 4 4 3 4 5
2 3 4 5 2 0 3 6 5 4 2 3 3 4 5 5 5 5 4 4 3 3 3 2 1 1 1 0 0 1 2 2 2 2 4 5 6 7 7 5 5 5 4 5 5 5 5 4 4
1 3 5 5 3 2 4 6 5 3 1 1 3 4 5 7 7 6 5 4 4 3 3 3 2 1 1 1 1 2 2 2 2 2 3 5 6 7 7 6 4 4 4 5 6 5 4 3 3
3 3 4 5 5 2 2 4 2 2 1 2 4 4 5 6 7 7 7 6 5 4 3 3 3 2 2 1 0 1 1 0 0 1 2 3 5 6 7 7 6 5 4 6 7 6 5 4 3
4 4 5 5 3 3 1 3 4 2 2 4 5 6 6 6 6 6 6 7 6 5 4 3 3 3 2 0 1 2 1 2 2 2 2 3 4 5 7 8 7 6 4 5 6 6 4 5 5
4 6 5 4 2 2 1 2 5 1 3 5 5 5 6 6 6 6 6 6 7 5 4 3 4 3 3 1 2 3 1 1 1 1 2 2 2 4 6 7 7 6 5 5 5 5 5 4 5
4 4 2 1 2 3 3 3 4 2 3 5 5 6 6 7 6 7 7 7 7 6 4 4 4 4 3 2 2 3 3 2 1 2 2 2 2 3 4 5 6 6 5 6 6 6 6 5 4
5 4 4 4 2 4 1 2 5 3 3 3 5 6 6 7 7 8 9 9 8 7 6 5 5 5 4 2 2 3 3 3 3 3 3 3 2 3 4 4 4 4 5 6 6 6 6 6 6
2 2 2 2 3 4 2 3 4 3 3 3 4 4 6 7 7 7 7 7 7 7 7 6 5 6 5 3 3 3 3 3 3 3 3 4 4 4 4 5 5 5 6 6 6 5 5 5 5
1 1 1 2 1 2 4 5 5 3 5 6 6 6 7 7 7 7 7 7 7 7 6 5 5 6 5 4 4 3 3 3 3 4 3 3 3 4 4 4 4 4 5 5 5 5 6 5 5
2 2 3 2 0 3 5 4 4 5 6 6 6 6 7 7 8 8 8 7 7 6 6 5 5 5 6 5 3 3 3 3 3 4 4 4 4 4 4 4 4 4 4 5 5 5 5 6 5
2 2 2 1 2 2 3 5 3 4 4 5 6 6 7 7 8 8 8 7 7 6 5 5 5 5 5 5 4 4 4 3 3 3 4 4 4 4 4 4 5 5 5 5 6 6 6 6 5
2 2 2 1 2 2 2 6 4 3 4 4 6 7 7 7 7 7 8 7 7 7 6 5 5 5 5 5 5 4 4 3 3 4 4 4 4 4 4 3 4 5 5 5 6 6 6 7 7
Wind_Direction
341 349 33 51 60 58 230 241 232 270 254 262 203 137 141 147 154 190 344 105 109 136 154 153 148 140 133 127 121 119 121 121 121 121 120 119 118 117 116 116 114 110 107 103 102 101 99 97 96
339 3 46 61 108 199 252 237 229 234 223 346 54 81 90 71 21 50 27 30 115 130 144 144 139 140 136 130 125 121 121 124 124 123 122 122 120 119 116 115 114 111 109 106 104 102 101 99 98
355 44 79 88 146 201 221 235 224 261 260 52 49 48 103 39 16 357 327 96 109 119 131 138 136 136 135 132 128 124 123 122 126 125 124 123 121 120 117 115 114 113 112 109 107 106 105 104 101
52 50 61 97 212 222 210 252 235 288 5 32 80 60 47 50 352 330 30 106 111 105 123 132 132 134 133 130 131 128 124 124 124 126 126 126 124 120 117 115 114 114 115 113 111 109 108 107 106
56 84 93 221 237 237 236 288 209 122 109 15 92 109 344 9 22 56 87 107 117 104 116 134 130 125 128 131 126 129 129 126 125 124 126 126 126 123 119 115 116 116 116 117 116 114 112 109 109
58 83 143 220 234 251 275 306 71 83 21 24 95 114 267 27 42 64 86 99 97 98 106 128 132 126 124 125 128 125 130 129 127 125 124 128 129 125 123 120 118 120 118 118 118 117 117 113 111
113 126 190 214 238 254 270 319 152 173 85 309 138 127 292 10 28 77 89 84 72 74 81 97 117 126 128 125 124 127 127 131 129 126 122 124 128 127 126 124 121 122 123 120 118 119 119 115 112
120 122 184 219 226 248 292 325 320 134 208 359 91 124 257 305 29 93 97 102 87 69 65 67 89 107 119 128 130 127 128 129 128 122 117 117 122 127 127 127 125 124 125 122 119 119 118 115 112
86 133 216 216 205 249 349 23 349 25 93 50 59 36 300 60 105 95 86 70 80 77 65 58 66 80 98 120 125 122 126 125 126 123 119 116 113 117 123 126 127 125 125 123 120 121 116 112 110
92 200 225 229 192 108 5 12 347 47 50 10 359 6 25 94 114 116 122 122 117 114 87 51 55 73 83 109 115 116 123 125 126 127 122 116 114 114 118 124 125 123 121 120 119 121 118 112 106
109 201 241 316 327 344 344 346 353 110 35 270 284 346 52 94 103 118 136 163 178 185 150 74 48 76 89 82 110 110 116 121 121 127 125 120 113 111 113 114 113 114 116 113 113 112 115 115 113
94 327 315 308 331 330 316 320 1 53 239 292 225 159 124 132 156 170 169 188 208 75 153 105 42 56 81 93 106 118 114 120 127 139 134 128 122 119 121 119 119 117 120 116 111 110 114 116 118
237 298 341 341 4 354 11 319 285 304 308 322 38 110 115 109 171 255 173 122 42 62 359 354 25 76 81 94 94 117 129 137 143 147 147 142 138 138 134 130 128 124 125 124 119 114 115 114 114
258 289 308 317 300 297 334 305 301 294 340 27 47 59 55 58 22 17 13 1 357 15 5 357 31 12 61 90 107 120 142 150 147 153 160 155 151 149 145 138 136 134 135 133 129 125 119 118 116
286 319 325 317 287 264 316 316 261 282 12 39 22 11 7 9 21 5 331 317 317 322 353 357 26 12 18 84 138 144 148 156 156 161 168 163 155 155 153 151 147 147 143 133 124 118 112 112 110
19 7 297 307 325 291 155 251 274 327 42 13 348 346 344 347 349 335 336 332 332 339 350 342 5 11 4 5 118 143 160 160 166 169 171 171 163 157 155 157 157 154 146 135 128 123 113 108 112
28 293 268 293 322 18 164 243 292 326 25 350 329 332 329 333 342 340 335 331 341 323 335 330 5 15 357 350 5 90 158 154 169 174 176 178 173 165 158 161 158 156 147 142 140 128 128 126 121
258 251 261 267 302 96 204 249 290 327 11 321 324 331 325 323 313 324 329 335 346 349 346 320 24 1 357 0 26 84 113 116 165 187 187 183 181 173 164 157 157 155 148 145 144 135 117 127 126
239 247 270 272 276 294 236 253 274 301 334 327 329 336 329 315 318 335 343 350 355 6 1 336 77 11 14 47 149 184 206 213 208 218 198 190 188 179 169 162 158 160 164 164 152 138 132 128 128
285 278 284 297 313 269 255 263 267 265 255 312 318 329 329 330 338 342 348 353 352 352 343 335 353 281 247 238 226 223 226 223 227 234 215 201 195 188 178 165 168 169 162 159 157 146 144 146 154
310 256 277 290 323 346 311 298 271 277 262 354 356 347 344 337 331 336 344 346 346 343 327 324 326 315 275 278 245 34 42 40 166 256 248 238 210 198 186 176 172 173 171 176 173 165 160 167 184
292 294 287 291 313 306 333 281 278 273 311 329 331 342 341 336 335 335 340 338 335 329 324 335 325 331 317 268 190 180 206 237 260 240 239 269 228 209 192 180 176 177 179 179 181 174 168 162 173
267 300 290 264 245 306 314 232 288 345 299 303 312 319 330 332 332 333 333 325 321 323 330 337 331 330 324 313 222 210 229 260 282 274 245 250 258 226 203 185 179 179 185 186 182 178 177 176 174
303 326 332 54 99 278 251 199 285 272 268 300 311 315 325 333 340 341 338 337 335 339 349 347 332 323 324 325 278 229 230 249 257 261 241 239 250 241 216 195 188 186 187 190 188 186 186 186 174
24 39 12 359 357 264 228 205 255 292 306 300 305 317 328 340 344 344 343 342 343 343 345 339 337 327 319 310 298 275 244 232 231 240 231 238 252 254 220 209 203 196 196 194 188 183 190 188 181
347 95 139 235 267 298 321 242 257 300 330 341 339 336 343 345 341 336 333 334 336 337 338 336 334 329 326 319 298 299 274 245 248 255 247 235 237 255 239 216 211 207 199 192 188 184 191 191 192
22 71 177 151 278 283 283 300 309 332 347 350 349 353 343 340 339 336 335 336 335 333 329 328 327 328 323 315 314 304 291 273 266 265 257 251 257 266 257 224 213 211 204 193 187 190 193 191 195
55 138 80 107 256 288 303 296 292 310 313 328 336 335 334 337 340 337 334 334 332 327 323 330 332 326 319 315 312 310 299 279 269 267 261 255 265 270 250 237 213 209 208 202 190 189 190 191 195
25 48 76 128 171 195 284 282 265 259 279 300 311 321 325 326 327 327 328 330 327 328 331 338 337 331 330 330 320 315 308 306 291 271 266 258 258 264 242 244 222 210 209 206 199 197 190 193 194
163 180 153 169 261 210 226 274 300 271 292 305 310 317 323 322 323 326 329 333 335 335 338 337 330 330 327 325 321 309 305 299 296 287 279 271 260 261 241 244 239 217 210 207 205 200 196 196 198
Height
1501 1502 1504 1506 1511 1523 1523 1518 1515 1513 1512 1511 1510 1511 1512 1515 1519 1522 1517 1514 1516 1518 1520 1523 1525 1528 1530 1531 1533 1534 1536 1537 1538 1539 1540 1541 1543 1544 1545 1546 1547 1548 1549 1550 1551 1552 1552 1553 1553
1501 1503 1506 1506 1517 1527 1522 1515 1514 1511 1510 1509 1509 1510 1511 1513 1515 1515 1513 1514 1517 1519 1521 1523 1525 1528 1530 1532 1533 1535 1536 1537 1539 1540 1541 1542 1544 1545 1546 1547 1548 1549 1550 1551 1552 1553 1554 1554 1555
1501 1503 1506 1510 1520 1519 1514 1512 1510 1509 1509 1509 1510 1511 1513 1515 1515 1514 1514 1515 1517 1519 1521 1523 1525 1528 1530 1532 1534 1535 1537 1538 1539 1540 1542 1543 1544 1546 1547 1548 1549 1550 1552 1553 1554 1555 1555 1556 1557
1502 1504 1507 1515 1516 1511 1511 1510 1509 1509 1509 1509 1510 1513 1514 1516 1516 1515 1514 1516 1517 1519 1521 1523 1526 1528 1530 1532 1534 1535 1537 1538 1539 1541 1543 1544 1545 1546 1548 1549 1550 1551 1553 1554 1555 1556 1557 1558 1558
1502 1503 1511 1518 1513 1510 1510 1509 1508 1508 1509 1510 1511 1513 1514 1515 1515 1514 1515 1516 1517 1519 1522 1524 1526 1528 1530 1532 1533 1535 1537 1538 1540 1541 1543 1544 1545 1547 1548 1550 1551 1552 1553 1555 1556 1557 1558 1559 1560
1502 1504 1515 1514 1509 1509 1509 1508 1508 1509 1510 1510 1511 1513 1514 1515 1514 1514 1515 1517 1519 1520 1522 1524 1526 1528 1530 1531 1533 1535 1537 1538 1540 1541 1543 1544 1546 1547 1549 1550 1552 1553 1554 1556 1557 1558 1559 1560 1561
1503 1508 1512 1512 1510 1510 1509 1508 1509 1509 1510 1511 1512 1513 1513 1514 1514 1515 1516 1517 1519 1521 1522 1524 1526 1527 1529 1531 1533 1535 1536 1538 1539 1541 1543 1544 1546 1547 1549 1550 1552 1553 1555 1556 1557 1559 1560 1561 1562
1502 1508 1512 1513 1511 1509 1509 1508 1509 1509 1510 1512 1512 1513 1514 1514 1514 1515 1516 1518 1519 1520 1522 1523 1525 1527 1528 1530 1532 1534 1536 1537 1539 1541 1542 1544 1545 1547 1549 1550 1552 1553 1555 1556 1558 1559 1561 1562 1563
1502 1511 1512 1511 1511 1510 1508 1508 1509 1510 1510 1511 1512 1513 1514 1513 1513 1514 1515 1517 1518 1520 1521 1522 1524 1526 1528 1529 1531 1533 1535 1537 1538 1540 1542 1543 1545 1547 1548 1550 1552 1554 1555 1557 1558 1560 1561 1563 1564
1503 1511 1509 1509 1509 1510 1509 1509 1510 1510 1510 1511 1511 1511 1512 1512 1512 1512 1513 1514 1516 1517 1519 1521 1523 1525 1526 1528 1530 1532 1534 1536 1538 1539 1541 1543 1544 1546 1548 1550 1552 1553 1555 1557 1558 1560 1561 1563 1564
1505 1508 1508 1509 1509 1509 1510 1510 1511 1510 1512 1512 1511 1510 1510 1511 1511 1511 1512 1514 1515 1516 1518 1519 1521 1523 1525 1527 1529 1530 1532 1534 1536 1538 1540 1542 1543 1545 1547 1549 1551 1553 1555 1557 1558 1560 1561 1563 1565
1508 1509 1509 1509 1509 1509 1510 1511 1511 1511 1512 1512 1511 1510 1509 1509 1510 1510 1511 1512 1514 1515 1517 1518 1520 1522 1524 1526 1527 1529 1531 1533 1535 1537 1539 1540 1542 1544 1546 1548 1550 1552 1554 1556 1558 1560 1561 1563 1565
1509 1510 1510 1510 1510 1510 1510 1511 1511 1510 1510 1510 1509 1509 1508 1508 1510 1511 1511 1512 1512 1513 1514 1517 1518 1520 1522 1524 1526 1527 1529 1531 1533 1535 1537 1539 1541 1543 1545 1547 1549 1551 1553 1555 1557 1559 1561 1563 1564
1510 1510 1510 1510 1509 1510 1510 1510 1511 1509 1509 1509 1508 1507 1507 1507 1508 1509 1510 1510 1511 1512 1513 1515 1516 1518 1520 1522 1524 1526 1527 1529 1531 1533 1535 1537 1539 1541 1543 1545 1548 1550 1552 1555 1557 1559 1560 1562 1564
1510 1510 1510 1509 1508 1509 1510 1511 1510 1509 1509 1507 1507 1507 1507 1507 1507 1507 1508 1509 1510 1510 1511 1512 1514 1516 1518 1520 1522 1524 1525 1528 1529 1531 1533 1535 1538 1540 1542 1544 1546 1549 1551 1554 1556 1558 1560 1561 1563
1511 1513 1513 1510 1509 1508 1513 1512 1509 1509 1508 1506 1506 1506 1506 1506 1506 1507 1507 1508 1509 1509 1510 1511 1513 1514 1516 1517 1520 1522 1523 1525 1527 1529 1531 1533 1535 1538 1540 1542 1545 1547 1550 1552 1554 1556 1558 1560 1562
1515 1517 1515 1511 1509 1509 1511 1511 1509 1508 1507 1506 1506 1505 1505 1505 1505 1506 1506 1507 1507 1508 1509 1509 1511 1511 1513 1515 1517 1519 1521 1523 1525 1527 1529 1531 1533 1535 1538 1540 1542 1545 1547 1550 1552 1554 1557 1559 1561
1519 1518 1516 1513 1510 1510 1511 1511 1508 1507 1506 1506 1505 1505 1504 1504 1504 1504 1505 1505 1506 1507 1508 1508 1509 1509 1510 1513 1514 1516 1518 1520 1522 1524 1526 1528 1531 1532 1535 1537 1540 1542 1545 1548 1550 1552 1555 1557 1560
1517 1517 1516 1512 1509 1510 1510 1509 1507 1505 1505 1505 1505 1504 1504 1503 1504 1503 1503 1504 1504 1505 1505 1506 1507 1507 1508 1509 1510 1512 1514 1517 1519 1521 1524 1526 1528 1530 1532 1535 1537 1540 1542 1545 1548 1550 1553 1555 1558
1517 1518 1516 1512 1508 1509 1509 1507 1505 1504 1505 1505 1505 1504 1503 1502 1501 1501 1501 1501 1502 1502 1503 1504 1505 1506 1506 1508 1508 1510 1512 1514 1516 1518 1520 1523 1525 1527 1529 1531 1534 1537 1539 1542 1545 1547 1550 1552 1555
1517 1519 1517 1515 1510 1509 1509 1506 1505 1503 1503 1504 1504 1503 1503 1502 1501 1500 1499 1499 1500 1500 1501 1502 1503 1504 1505 1506 1507 1508 1509 1511 1512 1514 1517 1519 1521 1524 1525 1527 1531 1533 1536 1539 1541 1544 1547 1549 1553
1518 1515 1514 1513 1515 1516 1514 1512 1505 1504 1504 1503 1503 1502 1502 1501 1500 1499 1498 1498 1498 1498 1499 1500 1501 1501 1503 1503 1503 1504 1505 1506 1507 1511 1513 1516 1518 1520 1522 1524 1527 1530 1533 1535 1538 1541 1544 1547 1549
1519 1515 1514 1513 1516 1520 1517 1517 1509 1506 1506 1504 1503 1502 1501 1501 1500 1498 1498 1498 1497 1497 1497 1497 1498 1499 1500 1500 1501 1502 1503 1504 1506 1508 1510 1512 1514 1516 1519 1520 1523 1526 1529 1532 1535 1537 1540 1543 1546
1518 1516 1514 1515 1518 1521 1517 1519 1513 1511 1508 1504 1502 1501 1500 1500 1499 1498 1497 1497 1496 1495 1495 1496 1496 1497 1497 1497 1498 1499 1500 1501 1503 1504 1505 1508 1510 1512 1514 1516 1519 1522 1525 1528 1531 1534 1537 1540 1542
1521 1524 1526 1524 1525 1519 1516 1518 1515 1509 1507 1506 1503 1501 1500 1499 1498 1497 1495 1494 1494 1493 1493 1494 1493 1493 1494 1494 1495 1496 1497 1498 1499 1500 1501 1503 1506 1508 1510 1512 1515 1518 1521 1524 1527 1530 1533 1536 1538
1527 1528 1531 1531 1526 1522 1518 1517 1513 1508 1506 1504 1503 1501 1500 1498 1497 1496 1495 1493 1492 1492 1492 1492 1492 1491 1491 1491 1492 1493 1494 1495 1497 1498 1498 1500 1502 1504 1506 1508 1511 1514 1517 1520 1523 1525 1529 1531 1534
1529 1532 1532 1536 1537 1533 1522 1519 1512 1507 1505 1504 1502 1501 1500 1498 1497 1495 1493 1492 1491 1490 1490 1489 1489 1489 1489 1489 1489 1490 1491 1492 1493 1494 1495 1496 1498 1500 1503 1504 1507 1509 1512 1515 1518 1520 1524 1527 1530
1531 1533 1536 1537 1534 1529 1523 1523 1518 1510 1507 1505 1503 1501 1499 1498 1495 1493 1492 1491 1489 1488 1488 1487 1486 1486 1486 1485 1486 1486 1488 1489 1490 1491 1492 1493 1495 1497 1498 1500 1502 1505 1508 1511 1513 1516 1519 1522 1525
1536 1537 1538 1540 1537 1535 1530 1522 1514 1511 1507 1505 1503 1501 1499 1497 1494 1492 1490 1488 1487 1486 1485 1484 1484 1484 1483 1483 1483 1483 1484 1485 1486 1488 1489 1490 1492 1493 1494 1496 1498 1500 1503 1506 1509 1512 1515 1518 1520
1535 1538 1540 1539 1540 1542 1538 1527 1511 1510 1507 1505 1503 1501 1499 1497 1494 1491 1488 1486 1485 1483 1482 1481 1481 1481 1480 1480 1480 1480 1480 1481 1483 1483 1485 1486 1488 1489 1491 1492 1494 1496 1499 1501 1504 1507 1510 1513 1515